Location: Artiguedieu
(43.5000°N, 0.5454°E)
Time: 01:11:55
(UTC+00:00)

HuskySat-1 - Pass Details

Date: 29 September 2021
Orbit: 445 x 458 km, 51.6° (Epoch: 23 October)

Event Time Altitude Azimuth Distance (km) Brightness Sun altitude
Rises 19:58:09 0° 257° (WSW) 2,455 ? -25.0°
Reaches altitude 10° 20:00:21 10° 265° (W) 1,588 ? -25.4°
Enters shadow 20:03:01 36° 304° (WNW) 744 ? -25.8°
